Location: Zerbst
(51.9650°N, 12.0766°E)
Time: 11:41:09
(UTC+02:00)

ISS - Pass Details

Date: 14 May 2017
Orbit: 402 x 409 km, 51.6° (Epoch: 24 May)

Event Time Altitude Azimuth Distance (km) Brightness Sun altitude
Exits shadow 02:40:01 19° 135° (SE) 1,040 -2.0 -16.6°
Drops below altitude 10° 02:42:04 10° 97° (E) 1,464 -0.8 -16.5°
Sets 02:44:31 0° 79° (E) 2,326 0.5 -16.3°
